TimeCDT,TemperatureF,Dew PointF,Humidity,Sea Level PressureIn,VisibilityMPH,Wind Direction,Wind SpeedMPH,Gust SpeedMPH,PrecipitationIn,Events,Conditions,WindDirDegrees,DateUTC
12:53 AM,48.0,34.0,58,30.19,10.0,ENE,16.1,21.9,N/A,,Overcast,60,2012-10-07 05:53:00
1:53 AM,46.9,30.9,54,30.19,10.0,NE,17.3,-,N/A,,Overcast,50,2012-10-07 06:53:00
2:53 AM,46.9,30.0,52,30.20,10.0,ENE,15.0,21.9,N/A,,Overcast,60,2012-10-07 07:53:00
3:53 AM,46.9,28.0,48,30.20,10.0,ENE,15.0,-,N/A,,Overcast,70,2012-10-07 08:53:00
4:53 AM,46.0,28.0,50,30.20,10.0,ENE,8.1,-,N/A,,Overcast,60,2012-10-07 09:53:00
5:53 AM,45.0,28.0,52,30.19,10.0,ENE,9.2,-,N/A,,Overcast,70,2012-10-07 10:53:00
6:53 AM,45.0,28.0,52,30.21,10.0,ENE,9.2,-,N/A,,Overcast,60,2012-10-07 11:53:00
7:53 AM,45.0,28.9,53,30.23,10.0,East,8.1,-,N/A,,Overcast,80,2012-10-07 12:53:00
8:18 AM,44.6,28.4,53,30.27,10.0,ENE,5.8,-,N/A,,Overcast,70,2012-10-07 13:18:00
8:53 AM,45.0,30.0,56,30.24,10.0,ESE,8.1,-,N/A,,Overcast,110,2012-10-07 13:53:00
9:53 AM,45.0,32.0,60,30.25,10.0,SE,5.8,-,N/A,,Overcast,130,2012-10-07 14:53:00
10:53 AM,46.0,33.1,61,30.26,10.0,ENE,3.5,-,N/A,,Overcast,70,2012-10-07 15:53:00
11:53 AM,46.9,34.0,61,30.24,10.0,East,6.9,-,N/A,,Overcast,100,2012-10-07 16:53:00
12:53 PM,48.9,35.1,59,30.21,10.0,East,6.9,-,N/A,,Overcast,100,2012-10-07 17:53:00
1:18 PM,48.2,35.6,62,30.23,10.0,Variable,3.5,-,N/A,,Overcast,0,2012-10-07 18:18:00
1:53 PM,50.0,36.0,59,30.17,10.0,Variable,6.9,-,N/A,,Overcast,0,2012-10-07 18:53:00
2:53 PM,51.1,36.0,56,30.14,10.0,SSE,6.9,-,N/A,,Overcast,150,2012-10-07 19:53:00
3:53 PM,52.0,36.0,54,30.10,10.0,ESE,8.1,-,N/A,,Overcast,120,2012-10-07 20:53:00
4:53 PM,54.0,37.0,53,30.10,10.0,East,5.8,-,N/A,,Overcast,80,2012-10-07 21:53:00
5:53 PM,54.0,37.0,53,30.09,10.0,East,5.8,-,N/A,,Overcast,90,2012-10-07 22:53:00
6:53 PM,54.0,37.0,53,30.10,10.0,ESE,8.1,-,N/A,,Overcast,110,2012-10-07 23:53:00
7:53 PM,52.0,36.0,54,30.12,10.0,East,10.4,-,N/A,,Overcast,80,2012-10-08 00:53:00
8:53 PM,50.0,36.0,59,30.14,10.0,East,8.1,-,N/A,,Clear,90,2012-10-08 01:53:00
9:53 PM,48.0,35.1,61,30.17,10.0,East,8.1,-,N/A,,Clear,100,2012-10-08 02:53:00
10:53 PM,46.0,36.0,68,30.19,10.0,East,5.8,-,N/A,,Clear,100,2012-10-08 03:53:00
11:53 PM,45.0,36.0,71,30.19,10.0,East,5.8,-,N/A,,Clear,100,2012-10-08 04:53:00